TimeBST,TemperatureF,Dew PointF,Humidity,Sea Level PressureIn,VisibilityMPH,Wind Direction,Wind SpeedMPH,Gust SpeedMPH,PrecipitationIn,Events,Conditions,WindDirDegrees,DateUTC
5:50 AM,59.0,57.2,94,29.80,2.5,East,3.5,-,N/A,,Mostly Cloudy,80,2013-10-03 04:50:00
6:20 AM,59.0,57.2,94,29.80,2.5,East,5.8,-,N/A,,Mostly Cloudy,90,2013-10-03 05:20:00
6:50 AM,60.8,59.0,94,29.77,1.9,East,6.9,-,N/A,,Mostly Cloudy,100,2013-10-03 05:50:00
7:20 AM,60.8,59.0,94,29.77,1.9,East,9.2,-,N/A,,Mostly Cloudy,90,2013-10-03 06:20:00
7:50 AM,60.8,59.0,94,29.77,2.2,East,8.1,-,N/A,,Mostly Cloudy,100,2013-10-03 06:50:00
8:20 AM,60.8,57.2,88,29.77,2.2,East,8.1,-,N/A,,Mostly Cloudy,100,2013-10-03 07:20:00
8:50 AM,60.8,57.2,88,29.74,4.3,ESE,6.9,-,N/A,,Scattered Clouds,110,2013-10-03 07:50:00
9:20 AM,60.8,57.2,88,29.74,4.3,East,6.9,-,N/A,,Scattered Clouds,100,2013-10-03 08:20:00
9:50 AM,60.8,59.0,94,29.74,4.3,East,9.2,-,N/A,,Scattered Clouds,100,2013-10-03 08:50:00
10:20 AM,60.8,59.0,94,29.74,6.2,East,9.2,-,N/A,,Mostly Cloudy,100,2013-10-03 09:20:00
10:50 AM,62.6,59.0,88,29.71,6.2,East,12.7,-,N/A,,Mostly Cloudy,100,2013-10-03 09:50:00
11:20 AM,60.8,57.2,88,29.74,5.0,SE,11.5,-,N/A,Rain,Light Rain,130,2013-10-03 10:20:00
11:50 AM,60.8,57.2,88,29.68,5.0,ESE,12.7,27.6,N/A,Rain,Light Rain,110,2013-10-03 10:50:00
12:20 PM,60.8,59.0,94,29.65,6.2,ESE,11.5,-,N/A,,Light Drizzle,110,2013-10-03 11:20:00
12:50 PM,60.8,59.0,94,29.68,6.2,SE,10.4,27.6,N/A,,Mostly Cloudy,130,2013-10-03 11:50:00
1:20 PM,62.6,60.8,94,29.68,6.2,SE,6.9,18.4,N/A,,Mostly Cloudy,140,2013-10-03 12:20:00
1:50 PM,64.4,59.0,83,29.68,6.2,SE,6.9,18.4,N/A,,Mostly Cloudy,140,2013-10-03 12:50:00
2:20 PM,64.4,59.0,83,29.71,6.2,SSE,8.1,21.9,N/A,,Mostly Cloudy,150,2013-10-03 13:20:00
2:50 PM,64.4,59.0,83,29.68,6.2,SSE,8.1,24.2,N/A,,Mostly Cloudy,160,2013-10-03 13:50:00
3:20 PM,64.4,60.8,88,29.71,6.2,SSE,8.1,20.7,N/A,,Mostly Cloudy,150,2013-10-03 14:20:00
3:50 PM,64.4,60.8,88,29.68,6.2,SSE,5.8,17.3,N/A,,Mostly Cloudy,150,2013-10-03 14:50:00
4:20 PM,66.2,60.8,83,29.71,6.2,SSE,6.9,23.0,N/A,,Mostly Cloudy,160,2013-10-03 15:20:00
4:50 PM,68.0,60.8,78,29.68,6.2,SSE,4.6,16.1,N/A,,Mostly Cloudy,160,2013-10-03 15:50:00
5:20 PM,66.2,60.8,83,29.71,6.2,SSE,5.8,-,N/A,,Mostly Cloudy,160,2013-10-03 16:20:00
5:50 PM,66.2,60.8,83,29.71,6.2,Variable,2.3,-,N/A,,Mostly Cloudy,0,2013-10-03 16:50:00
6:20 PM,66.2,60.8,83,29.71,6.2,Variable,2.3,-,N/A,,Scattered Clouds,0,2013-10-03 17:20:00
6:50 PM,64.4,60.8,88,29.71,6.2,East,3.5,-,N/A,,Scattered Clouds,100,2013-10-03 17:50:00
7:20 PM,64.4,60.8,88,29.71,6.2,East,3.5,-,N/A,,Mostly Cloudy,90,2013-10-03 18:20:00
7:50 PM,62.6,60.8,94,29.71,3.7,East,4.6,-,N/A,,Scattered Clouds,100,2013-10-03 18:50:00
8:20 PM,62.6,59.0,88,29.71,6.2,ESE,4.6,-,N/A,,Scattered Clouds,110,2013-10-03 19:20:00
8:50 PM,62.6,60.8,94,29.74,6.2,ESE,4.6,-,N/A,,Scattered Clouds,110,2013-10-03 19:50:00
9:20 PM,62.6,59.0,88,29.74,6.2,Calm,Calm,-,N/A,,Scattered Clouds,0,2013-10-03 20:20:00
9:50 PM,62.6,59.0,88,29.71,6.2,East,3.5,-,N/A,,Scattered Clouds,100,2013-10-03 20:50:00
10:20 PM,60.8,59.0,94,29.71,6.2,East,3.5,-,N/A,,Partly Cloudy,100,2013-10-03 21:20:00